Regional Weather Roundup
Issued by NWS

Home | Current Version | Previous Version | Graphics & Text | Print | Product List | Glossary On
Versions: 1 2 3 4 5 6 7 8 9 10 11 12 13 14 15 16 17 18 19 20 21 22 23 24 25 26 27 28 29 30 31 32 33 34 35 36 37 38 39 40 41 42 43 44 45 46 47 48 49 50
143
ASUS44 KMEG 051610
RWRTN
TENNESSEE HOURLY STATE WEATHER ROUNDUP
NATIONAL WEATHER SERVICE MEMPHIS TN
1000 AM CST FRI FEB 05 2016

TNZ002-004-019-021-049-052-054-088>092-051700-
WEST TENNESSEE

CITY           SKY/WX    TMP DP  RH WIND       PRES   REMARKS
MEMPHIS INTL   CLOUDY    45  25  45 CALM      30.49S
NWS MEMPHIS      N/A     43 N/A N/A MISG        N/A
JACKSON        SUNNY     41  25  53 W6        30.48R
DYERSBURG      CLOUDY    41  28  60 SW3       30.49S
UNION CITY     SUNNY     39  28  65 SW5       30.45S
PARIS          SUNNY     37  23  56 VRB3      30.46S
LEXINGTON      SUNNY     37  23  56 SW6       30.47S WCI  33
$$

TNZ008-025-027-028-033-062-065-066-051700-
NORTH MIDDLE TENNESSEE

CITY           SKY/WX    TMP DP  RH WIND       PRES   REMARKS
NASHVILLE      MOSUNNY   38  18  44 CALM      30.48S
CLARKSVILLE    SUNNY     38  24  57 S6        30.47R WCI  33
SMYRNA         SUNNY     37  22  55 S3        30.50S
COOKEVILLE     SUNNY     36  18  48 CALM      30.44F
CROSSVILLE     SUNNY     35  15  44 N7        30.41S WCI  29
$$

TNZ061-075-076-078-094-096-097-051700-
SOUTH MIDDLE TENNESSEE

CITY           SKY/WX    TMP DP  RH WIND       PRES   REMARKS
FAYETTEVILLE   SUNNY     37  21  52 NE7       30.46R WCI  32
TULLAHOMA      SUNNY     37  16  41 VRB5      30.45S WCI  34
WINCHESTER     SUNNY     36  18  48 N6        30.46R WCI  31
MCMINNVILLE    SUNNY     36  19  51 E6        30.45S WCI  31
COLUMBIA       SUNNY     37  28  70 CALM      30.46R
SHELBYVILLE    SUNNY     39  23  52 NE3       30.47S
$$

TNZ017-018-042-046-047-051700-
NORTHEAST TENNESSEE

CITY           SKY/WX    TMP DP  RH WIND       PRES   REMARKS
TRI CITIES     SUNNY     33  15  47 CALM      30.42R
$$

TNZ012-013-036-069-073-074-051700-
CENTRAL EAST TENNESSEE

CITY           SKY/WX    TMP DP  RH WIND       PRES   REMARKS
KNOXVILLE      SUNNY     37  18  46 NE8       30.45S WCI  31
OAK RIDGE      SUNNY     37  17  44 E8        30.47S WCI  31
GATLINBURG       N/A     34  16  47 VRB3      30.45S
MORRISTOWN     SUNNY     36  14  41 NE5       30.43S WCI  32
$$

TNZ083-085-099-051700-
SOUTHEAST TENNESSEE

CITY           SKY/WX    TMP DP  RH WIND       PRES   REMARKS
CHATTANOOGA    MOSUNNY   38  16  40 N12       30.47R WCI  30
$$

SKY/WX REPORTED AS FAIR MEANS FEW OR NO CLOUDS BELOW
12 THOUSAND FEET.





USA.gov is the U.S. government's official web portal to all federal, state and local government web resources and services.